Regional Weather Roundup
Issued by NWS

Home | Current Version | Previous Version | Graphics & Text | Print | Product List | Glossary On
Versions: 1 2 3 4 5 6 7 8 9 10 11 12 13 14 15 16 17 18 19 20 21 22 23 24 25 26 27 28 29 30 31 32 33 34 35 36 37 38 39 40 41 42 43 44 45 46 47 48 49 50
000
ASUS43 KMKX 111221
RWRWI

WISCONSIN REGIONAL WEATHER ROUNDUP
NATIONAL WEATHER SERVICE MILWAUKEE/SULLIVAN WI
600 AM CST SUN DEC 11 2016

NOTE: "FAIR" INDICATES FEW OR NO CLOUDS BELOW 12,000 FEET WITH NO
SIGNIFICANT WEATHER AND/OR OBSTRUCTIONS TO VISIBILITY.

WIZ001-002-006>008-014>016-023>028-111300-
NORTHWEST WISCONSIN

CITY           SKY/WX    TMP DP  RH WIND       PRES   REMARKS
SUPERIOR ARPT  CLOUDY    13   6  74 E8        30.11F WCI   1
6HR MIN TEMP:   9; 6HR MAX TEMP:  12;

ASHLAND        CLOUDY     8   4  83 E6        30.12F WCI  -2
6HR MIN TEMP:   4; 6HR MAX TEMP:   8;

HAYWARD        LGT SNOW  12   7  80 NE5       30.04F WCI   4
6HR MIN TEMP:  11; 6HR MAX TEMP:  12; 6HR PCP: TRACE;

SIREN          LGT SNOW  13  10  86 E5        30.03S WCI   5
6HR MIN TEMP:  11; 6HR MAX TEMP:  13;

CUMBERLAND     LGT SNOW  12  10  92 E7        30.00F WCI   2
RICE LAKE      LGT SNOW  15  11  87 E8        30.02F VSB 3/4 WCI   3
6HR MIN TEMP:  12; 6HR MAX TEMP:  14;

CHETEK         LGT SNOW  14  11  88 E8        30.01F WCI   3
6HR MIN TEMP:  12; 6HR MAX TEMP:  14; 6HR PCP:  0.01;

LADYSMITH      LGT SNOW  14  10  86 E8        30.03F WCI   3
6HR MIN TEMP:  12; 6HR MAX TEMP:  14;

EAU CLAIRE     LGT SNOW  16  13  88 E8        30.01F VSB 3/4 WCI   5
6HR MIN TEMP:  14; 6HR MAX TEMP:  16; 6HR PCP:  0.08;

MENOMONIE      LGT SNOW  17  15  89 E12       30.00F WCI   5
6HR MIN TEMP:  15; 6HR MAX TEMP:  17; 6HR PCP:  0.02;

NEW RICHMOND   LGT SNOW  15  12  85 E12       29.98F VSB 1   WCI   2
6HR MIN TEMP:  13; 6HR MAX TEMP:  15;

OSCEOLA        LGT SNOW  16  13  88 E7        30.02F WCI   6
6HR MIN TEMP:  14; 6HR MAX TEMP:  16;

$$

WIZ003>005-009-010-017-018-111300-
NORTH CENTRAL WISCONSIN

CITY           SKY/WX    TMP DP  RH WIND       PRES   REMARKS
MANITOWISH WTR CLOUDY     9   6  90 E5        30.04F WCI   0
6HR MIN TEMP:   4; 6HR MAX TEMP:   9;

ARBOR VITAE    FLURRIES  11   7  84 E7        30.05F WCI   1
6HR MIN TEMP:   9; 6HR MAX TEMP:  11;

WOODRUFF       FLURRIES  11   7  84 E7        30.05F WCI   1
6HR MIN TEMP:   9; 6HR MAX TEMP:  11;

RHINELANDER    LGT SNOW  11   7  84 E8        30.05F FOG     WCI  -1
6HR MIN TEMP:   9; 6HR MAX TEMP:  11; 6HR PCP: TRACE;

EAGLE RIVER    CLOUDY     9   3  77 E5        30.06F WCI   1
6HR MIN TEMP:   5; 6HR MAX TEMP:   9;

LAND O LAKES   CLOUDY     9   5  84 E3        30.07F
6HR MIN TEMP:   1; 6HR MAX TEMP:   8;

PHILLIPS       LGT SNOW  10   8  89 E6        30.02F WCI   1
6HR MIN TEMP:   9; 6HR MAX TEMP:  10;

TOMAHAWK       LGT SNOW  10   7  87 E5        30.05F WCI   2
6HR MIN TEMP:   9; 6HR MAX TEMP:  10;

MEDFORD        LGT SNOW  12   9  85 E9        30.01F WCI   0
6HR MIN TEMP:  11; 6HR MAX TEMP:  12;

MERRILL        LGT SNOW  12   9  88 E6        30.05F WCI   3
6HR MIN TEMP:  11; 6HR MAX TEMP:  12;

$$

WIZ029-030-035-036-043>047-111300-
CENTRAL WISCONSIN

CITY           SKY/WX    TMP DP  RH WIND       PRES   REMARKS
WAUSAU         LGT SNOW  12   9  87 E8        30.05F FOG     WCI   0
6HR MIN TEMP:  11; 6HR MAX TEMP:  13; 6HR PCP:  0.02;

MOSINEE        LGT SNOW  12  12 100 E10       30.05F WCI  -1
MARSHFIELD     LGT SNOW  15  11  83 E12       30.01F VSB 3/4 WCI   2
6HR MIN TEMP:  14; 6HR MAX TEMP:  15; 6HR PCP: TRACE;

STEVENS POINT  LGT SNOW  13  11  92 E8        30.05F WCI   2
6HR MIN TEMP:  13; 6HR MAX TEMP:  13;

WAUPACA        LGT SNOW  19  16  86 CALM      30.08F
6HR MIN TEMP:  18; 6HR MAX TEMP:  19;

WAUTOMA        LGT SNOW  20  17  88 NE9       30.06F FOG     WCI   9
6HR MIN TEMP:  16; 6HR MAX TEMP:  20; 6HR PCP: TRACE;

WISC RAPIDS    LGT SNOW  17  15  92 E8        30.04F VSB 3/4 WCI   7
6HR MIN TEMP:  15; 6HR MAX TEMP:  17; 6HR PCP:  0.05;

CAMP DOUGLAS   LGT SNOW  19  18  93 E8        30.00F VSB 1   WCI   9
6HR MIN TEMP:  17; 6HR MAX TEMP:  19; 6HR PCP:  0.09;

$$

WIZ011>013-019>022-031-037>040-048>050-111300-
NORTHEAST WISCONSIN

CITY           SKY/WX    TMP DP  RH WIND       PRES   REMARKS
ANTIGO         LGT SNOW  10   7  88 E7        30.05F WCI  -1
6HR MIN TEMP:   9; 6HR MAX TEMP:  10;

SHAWANO        LGT SNOW  17  13  86 NE7       30.12F VSB 1   WCI   7
6HR MIN TEMP:  16; 6HR MAX TEMP:  17;

OCONTO         CLOUDY    16  13  89 NE5       30.14F WCI   9
6HR MIN TEMP:  14; 6HR MAX TEMP:  16;

STURGEON BAY   LGT SNOW  19  16  86 NE8       30.13F FOG     WCI   9
6HR MIN TEMP:  16; 6HR MAX TEMP:  19; 6HR PCP:  0.01;

GREEN BAY      LGT SNOW  20  18  92 NE9       30.12F VSB 1   WCI   9
6HR MIN TEMP:  19; 6HR MAX TEMP:  20; 6HR PCP:  0.08;

MANITOWOC      LGT SNOW  21  19  93 N5        30.10F VSB 1   WCI  15
6HR MIN TEMP:  17; 6HR MAX TEMP:  21; 6HR PCP:  0.04;

APPLETON       LGT SNOW  18  16  93 E7        30.08F WCI   8
CLINTONVILLE   LGT SNOW  18  14  86 E9        30.10F WCI   6
OSHKOSH        LGT SNOW  21  18  88 E12       30.07F VSB 3/4 WCI   9
6HR MIN TEMP:  19; 6HR MAX TEMP:  22; 6HR PCP:  0.07;

$$

WIZ032>034-041-042-053>061-111300-
SOUTHWEST WISCONSIN

CITY           SKY/WX    TMP DP  RH WIND       PRES   REMARKS
LA CROSSE      LGT SNOW  21  17  84 SE6       29.99S FOG     WCI  13
6HR MIN TEMP:  18; 6HR MAX TEMP:  21; 6HR PCP:  0.22;

SPARTA         LGT SNOW  19  18  93 E10       29.98F VSB 1   WCI   8
6HR MIN TEMP:  17; 6HR MAX TEMP:  19;

VIROQUA        CLOUDY    19  18  96 E10       29.95S WCI   8
6HR MIN TEMP:  17; 6HR MAX TEMP:  19; 6HR PCP:  0.02;

BOSCOBEL       LGT SNOW  24  21  88 NE3       29.98F FOG
6HR MIN TEMP:  21; 6HR MAX TEMP:  25; 6HR PCP:  0.10;

PRAIRIE DU CHI CLOUDY    24  20  83 E7        29.96F WCI  16
6HR MIN TEMP:  22; 6HR MAX TEMP:  24;

PLATTEVILLE    CLOUDY    25  24  97 SE12G20   29.94F WCI  14
6HR MIN TEMP:  22; 6HR MAX TEMP:  25;

$$

WIZ056-057-062-063-064-067-068-111300-
SOUTH CENTRAL WISCONSIN

CITY           SKY/WX    TMP DP  RH WIND       PRES   REMARKS
REEDSBURG      LGT SNOW  20  19  98 E6        29.99F WCI  12
6HR MIN TEMP:  18; 6HR MAX TEMP:  20;

BARABOO/DELLS  SNOW      20  19  93 E8        30.00F VSB 1/2 WCI  11
6HR MIN TEMP:  19; 6HR MAX TEMP:  20; 6HR PCP:  0.06;

LONE ROCK      LGT SNOW  23  20  88 E10       29.99F VSB 1   WCI  12
6HR MIN TEMP:  20; 6HR MAX TEMP:  23; 6HR PCP:  0.06;

MINERAL POINT  CLOUDY    27  25  93 SE12      29.94F WCI  16
MADISON        LGT SNOW  23  20  88 SE10      30.01F FOG     WCI  12
6HR MIN TEMP:  19; 6HR MAX TEMP:  23; 6HR PCP:  0.17;

MIDDLETON      CLOUDY    25  22  91 SE7       29.99F WCI  17
6HR MIN TEMP:  22; 6HR MAX TEMP:  24;

WATERTOWN      LGT SNOW  23  23 100 SE7       30.02F WCI  15
6HR MIN TEMP:  20; 6HR MAX TEMP:  23;

MONROE         FLURRIES  25  23  93 SE10      29.96F WCI  15
JANESVILLE     LGT SNOW  27  27 100 SE10      30.00F WCI  17
$$

WIZ051-052-058>065-066-070>072-111300-
SOUTHEAST WISCONSIN

CITY           SKY/WX    TMP DP  RH WIND       PRES   REMARKS
MILWAUKEE      LGT SNOW  28  25  88 S8        30.06F FOG     WCI  20
6HR MIN TEMP:  22; 6HR MAX TEMP:  28; 6HR PCP:  0.15;

WAUKESHA       LGT SNOW  21  19  93 S6        30.07F VSB 1   WCI  14
MILWAUKEE/TIMM LGT SNOW  27  23  86 S3        30.07F
RACINE         LGT SNOW  29  24  82 S9        30.08F WCI  20
6HR MIN TEMP:  24; 6HR MAX TEMP:  29; 6HR PCP:  0.10;

BURLINGTON     LGT SNOW  29  28  95 SE8       30.04F WCI  21
6HR MIN TEMP:  25; 6HR MAX TEMP:  29; 6HR PCP:  0.01;

KENOSHA        LGT SNOW  28  24  85 S13       30.06F FOG     WCI  17
6HR MIN TEMP:  23; 6HR MAX TEMP:  28; 6HR PCP: TRACE;

FOND DU LAC    LGT SNOW  24  19  81 E6        30.07F VSB 3/4 WCI  17
6HR MIN TEMP:  20; 6HR MAX TEMP:  24; 6HR PCP:  0.09;

SHEBOYGAN      LGT SNOW  22  19  89 N6        30.07F VSB 1   WCI  14
6HR MIN TEMP:  18; 6HR MAX TEMP:  21; 6HR PCP:  0.12;

WEST BEND      LGT SNOW  25  25 100 SE3       30.06F
JUNEAU         SNOW      22  20  94 E9        30.05F VSB 1/2 WCI  11
6HR MIN TEMP:  19; 6HR MAX TEMP:  22; 6HR PCP:  0.04;

$$

LSZ147-162-111300-
LAKE SUPERIOR

STATION/POSITION TIME  TEMP    WIND        PRES    WAVE
                       AIR SEA DIR/SP/G            HT/PER
                 (UTC) (F)     (DEG/KT/KT) (MB)    (FT/S)
DEVILS ISLAND    1200   18     100/ 15/ 18 1021.5F
PORT WING        1140   11     110/  3/  6 1020.3F
SAXON HARBOR     1140    9     190/  3/  6 1020.7F
$$

LMZ867-665-643>646-111300-
LAKE MICHIGAN

STATION/POSITION TIME  TEMP    WIND        PRES    WAVE
                C1F1C2F2C3F3C4F4C5F5C6F6C7F7C8M1C9M2Ca!


USA.gov is the U.S. government's official web portal to all federal, state and local government web resources and services.